New Castle, PA

8:47 PM EDT on August 21, 2017 (GMT -0400)
New Castle Municipal

Weather History for KUCP - September, 2013

Change the Weather History Date:

Sunday, September 1, 2013

  Actual Average Record
Temperature  
Mean Temperature 74 °F -  
Max Temperature 81 °F 81 °F 96 °F (1953)
Min Temperature 66 °F 54 °F 38 °F (1967)
Cooling Degree Days 8    
Growing Degree Days 24 (Base 50)    
Moisture  
Dew Point 69 °F    
Average Humidity 95    
Maximum Humidity 100    
Minimum Humidity 69    
Precipitation  
Precipitation 0.00 in - - ()
Sea Level Pressure  
Sea Level Pressure 29.85 in    
Wind  
Wind Speed 1 mph (SE)    
Max Wind Speed 7 mph    
Max Gust Speed -    
Visibility 3 miles    
Events Fog , Rain    
Averages and records for this station are not official NWS values.
T = Trace of Precipitation, MM = Missing Value Source: NWS Daily Summary

Daily Weather History Graph

Daily Weather History Graph

Search for Another Location

Airport or City:

Trip Planner

Search our weather history database for the weather conditions in past years. The results will help you decide how hot, cold, wet, or windy it might be!

Date:

Astronomy

Sep. 01, 2013 Rise Set
Actual Time 6:48 AM EDT 7:53 PM EDT
Civil Twilight 6:20 AM EDT 8:21 PM EDT
Nautical Twilight 5:46 AM EDT 8:55 PM EDT
Astronomical Twilight 5:11 AM EDT 9:30 PM EDT
Moon 3:07 AM EDT (9/1) 5:31 PM EDT (9/1)
Length of Visible Light 14h 01m
Length of Day
13h 05m
Waning Crescent, 14% of the Moon is Illuminated
Sep 1
Waning Crescent
Sep 5
New
Sep 12
First Quarter
Sep 19
Full
Sep 26
Last Quarter

Hourly Weather History & Observations

Time (EDT) Temp. Heat Index Dew Point Humidity Pressure Visibility Wind Dir Wind Speed Gust Speed Precip Events Conditions
12:40 AM 69.8 °F - 69.8 °F 100% 29.86 in 1.8 mi Calm Calm - N/A   Mostly Cloudy
12:49 AM 69.8 °F - 69.8 °F 100% 29.86 in 1.2 mi Calm Calm - N/A   Mostly Cloudy
12:56 AM 68.9 °F - 68.9 °F 100% 29.88 in 0.2 mi Calm Calm - N/A Fog Fog
1:47 AM 68.0 °F - 68.0 °F 100% 29.84 in 0.2 mi Calm Calm - N/A Fog Fog
1:56 AM 68.0 °F - 68.0 °F 100% 29.86 in 0.8 mi Calm Calm - N/A   Mist
2:04 AM 66.2 °F - 66.2 °F 100% 29.84 in 0.5 mi Calm Calm - N/A Fog Fog
2:14 AM 68.0 °F - 68.0 °F 100% 29.84 in 1.0 mi Calm Calm - N/A   Clear
2:17 AM 68.0 °F - 68.0 °F 100% 29.84 in 1.5 mi Calm Calm - N/A   Clear
2:44 AM 68.0 °F - 68.0 °F 100% 29.84 in 1.0 mi Calm Calm - N/A   Clear
2:56 AM 66.9 °F - 66.9 °F 100% 29.85 in 1.0 mi Calm Calm - N/A   Clear
3:15 AM 66.2 °F - 66.2 °F 100% 29.83 in 1.5 mi Calm Calm - N/A   Clear
3:25 AM 66.2 °F - 66.2 °F 100% 29.83 in 1.2 mi Calm Calm - N/A   Clear
3:48 AM 66.2 °F - 66.2 °F 100% 29.83 in 1.5 mi Calm Calm - N/A   Clear
3:56 AM 66.9 °F - 66.9 °F 100% 29.85 in 0.8 mi Calm Calm - N/A   Clear
4:01 AM 66.2 °F - 66.2 °F 100% 29.83 in 0.2 mi Calm Calm - N/A Fog Fog
4:16 AM 66.2 °F - 66.2 °F 100% 29.83 in 0.8 mi Calm Calm - N/A   Clear
4:18 AM 66.2 °F - 66.2 °F 100% 29.83 in 1.2 mi Calm Calm - N/A   Clear
4:22 AM 66.2 °F - 66.2 °F 100% 29.83 in 0.8 mi Calm Calm - N/A   Mist
4:25 AM 66.2 °F - 66.2 °F 100% 29.83 in 0.2 mi Calm Calm - N/A Fog Fog
4:35 AM 66.2 °F - 66.2 °F 100% 29.83 in 0.2 mi ENE 5.8 mph - N/A Fog Fog
4:56 AM 66.2 °F - 66.2 °F 100% 29.84 in 0.2 mi ENE 4.6 mph - N/A Fog Fog
5:06 AM 66.2 °F - 66.2 °F 100% 29.83 in 0.2 mi Calm Calm - N/A Fog Fog
5:12 AM 66.2 °F - 66.2 °F 100% 29.83 in 0.8 mi Calm Calm - N/A   Mostly Cloudy
5:19 AM 68.0 °F - 68.0 °F 100% 29.84 in 1.2 mi Calm Calm - N/A   Overcast
5:24 AM 68.0 °F - 68.0 °F 100% 29.84 in 2.0 mi Calm Calm - N/A   Overcast
5:32 AM 68.0 °F - 68.0 °F 100% 29.84 in 2.0 mi Calm Calm - N/A   Overcast
5:41 AM 68.0 °F - 68.0 °F 100% 29.84 in 2.0 mi Calm Calm - N/A   Overcast
5:56 AM 68.0 °F - 68.0 °F 100% 29.87 in 2.5 mi Calm Calm - N/A   Overcast
6:18 AM 68.0 °F - 68.0 °F 100% 29.85 in 2.5 mi Calm Calm - N/A   Overcast
6:56 AM 68.0 °F - 68.0 °F 100% 29.88 in 2.0 mi East 3.5 mph - 0.00 in Rain Light Rain
7:06 AM 69.8 °F - 69.8 °F 100% 29.85 in 1.8 mi Calm Calm - 0.00 in   Overcast
7:18 AM 69.8 °F - 69.8 °F 100% 29.86 in 1.0 mi Calm Calm - 0.00 in Rain Light Rain
7:28 AM 68.0 °F - 68.0 °F 100% 29.86 in 0.8 mi Calm Calm - 0.00 in   Overcast
7:49 AM 69.8 °F - 69.8 °F 100% 29.86 in 1.0 mi Calm Calm - 0.00 in   Overcast
7:56 AM 69.8 °F - 69.8 °F 100% 29.86 in 1.0 mi Calm Calm - N/A   Overcast
8:04 AM 69.8 °F - 69.8 °F 100% 29.86 in 1.2 mi Calm Calm - N/A   Overcast
8:14 AM 69.8 °F - 69.8 °F 100% 29.85 in 1.5 mi Calm Calm - N/A   Overcast
8:31 AM 69.8 °F - 69.8 °F 100% 29.85 in 2.0 mi Calm Calm - N/A   Overcast
8:45 AM 69.8 °F - 69.8 °F 100% 29.86 in 1.8 mi Calm Calm - N/A   Overcast
8:56 AM 70.9 °F - 70.9 °F 100% 29.88 in 1.0 mi Calm Calm - N/A   Overcast
9:03 AM 71.6 °F - 71.6 °F 100% 29.86 in 0.8 mi Calm Calm - N/A   Overcast
9:20 AM 71.6 °F - 71.6 °F 100% 29.86 in 1.2 mi SE 3.5 mph - N/A   Overcast
9:40 AM 71.6 °F - 71.6 °F 100% 29.86 in 0.8 mi Calm Calm - N/A   Overcast
9:56 AM 70.9 °F - 70.9 °F 100% 29.89 in 1.0 mi Calm Calm - N/A   Overcast
10:27 AM 71.6 °F - 71.6 °F 100% 29.87 in 0.8 mi Calm Calm - N/A   Overcast
10:38 AM 71.6 °F - 71.6 °F 100% 29.87 in 1.2 mi Calm Calm - N/A   Overcast
10:46 AM 71.6 °F - 71.6 °F 100% 29.86 in 2.0 mi Calm Calm - N/A   Overcast
10:56 AM 72.9 °F - 72.0 °F 97% 29.89 in 3.0 mi Calm Calm - N/A   Overcast
11:56 AM 74.8 °F - 72.0 °F 91% 29.88 in 7.0 mi Calm Calm - N/A   Mostly Cloudy
12:19 PM 73.4 °F - 71.6 °F 94% 29.86 in 7.0 mi SSE 4.6 mph - N/A   Overcast
12:30 PM 75.2 °F - 71.6 °F 89% 29.86 in 9.0 mi Calm Calm - N/A   Overcast
12:56 PM 75.9 °F - 72.0 °F 87% 29.88 in 8.0 mi SSW 4.6 mph - N/A   Overcast
1:19 PM 78.8 °F - 71.6 °F 78% 29.85 in 10.0 mi Variable 5.8 mph - N/A   Scattered Clouds
1:56 PM 80.6 °F 84.6 °F 71.6 °F 74% 29.85 in 9.0 mi Variable 5.8 mph - N/A   Mostly Cloudy
2:29 PM 80.6 °F 84.6 °F 71.6 °F 74% 29.84 in 10.0 mi SSE 6.9 mph - N/A   Mostly Cloudy
2:56 PM 79.0 °F - 72.9 °F 81% 29.86 in 8.0 mi Variable 6.9 mph - N/A   Scattered Clouds
3:56 PM 79.9 °F - 72.0 °F 77% 29.85 in 9.0 mi Variable 3.5 mph - N/A   Scattered Clouds
4:56 PM 79.0 °F - 72.0 °F 79% 29.83 in 10.0 mi SSE 4.6 mph - N/A   Partly Cloudy
5:33 PM 80.6 °F 84.6 °F 71.6 °F 74% 29.81 in 10.0 mi Variable 3.5 mph - N/A   Mostly Cloudy
5:56 PM 81.0 °F 84.4 °F 70.0 °F 69% 29.82 in 10.0 mi SSW 5.8 mph - N/A   Partly Cloudy
6:56 PM 79.9 °F - 70.0 °F 72% 29.83 in 10.0 mi Variable 3.5 mph - N/A   Clear
7:56 PM 74.8 °F - 70.0 °F 85% 29.82 in 10.0 mi Calm Calm - N/A   Clear
8:56 PM 73.9 °F - 70.9 °F 90% 29.84 in 10.0 mi Calm Calm - N/A   Partly Cloudy
9:56 PM 72.9 °F - 70.9 °F 93% 29.86 in 8.0 mi Calm Calm - N/A   Clear
10:56 PM 71.6 °F - 71.6 °F 100% 29.83 in 6.0 mi Calm Calm - N/A   Scattered Clouds
11:56 PM 70.9 °F - 68.9 °F 93% 29.85 in 6.0 mi Calm Calm - N/A   Partly Cloudy